Location: Asheville, NC
(35.6000°N, 82.5500°W)
Time: 22:59:07

KKS-1 - Pass Details

Date: 17 March 2018
Orbit: 638 x 650 km, 98.4° (Epoch: 20 March)

Event Time Altitude Azimuth Distance (km) Brightness Sun altitude
Rises 06:01:07 0° 154° (SSE) 2,948 ? -20.4°
Reaches altitude 10° 06:03:21 10° 150° (SSE) 2,043 ? -20.0°
Maximum altitude 06:07:41 53° 74° (ENE) 798 ? -19.1°
Drops below altitude 10° 06:12:03 10° 358° (N) 2,056 ? -18.2°
Sets 06:14:18 0° 353° (N) 2,970 ? -17.8°
